Regional Weather Roundup
Issued by NWS

Home | Current Version | Previous Version | Graphics & Text | Print | Product List | Glossary On
Versions: 1 2 3 4 5 6 7 8 9 10 11 12 13 14 15 16 17 18 19 20 21 22 23 24 25 26 27 28 29 30 31 32 33 34 35 36 37 38 39 40 41 42 43 44 45 46 47 48 49 50
820
ASUS43 KDMX 292308
RWRIA

WEATHER ROUNDUP FOR IOWA
NATIONAL WEATHER SERVICE DES MOINES IA
600 PM CDT THU SEP 29 2016

NOTE: "FAIR" INDICATES FEW OR NO CLOUDS BELOW 12,000 FEET WITH NO
SIGNIFICANT WEATHER AND/OR OBSTRUCTIONS TO VISIBILITY.

* - THESE STATIONS ARE NOT NWS STATIONS...THUS NOT UNDER NWS
QUALITY CONTROL.  THEY ALSO DO NOT REPORT WEATHER SUCH
AS PRECIPITATION OR FOG.

IAZ001>003-012>014-020>022-031>034-043>046-300000-
   NORTHWEST IOWA

CITY           SKY/WX    TMP DP  RH WIND       PRES   REMARKS
CARROLL *      SUNNY     68  45  42 NE8       30.34S
CHEROKEE *     SUNNY     67  47  48 NE6       30.36S
DENISON *      SUNNY     68  46  45 NE5       30.32F
LE MARS *      SUNNY     70  46  43 E7        30.35F
SHELDON *      SUNNY     68  48  49 E7        30.35S
SIOUX CITY     SUNNY     70  48  45 SE7       30.34F
SPENCER        SUNNY     66  48  52 E7        30.37S
STORM LAKE *   SUNNY     66  46  48 E8        30.36F
$$

IAZ055>058-069>071-079>083-090>094-300000-
   SOUTHWEST IOWA

CITY           SKY/WX    TMP DP  RH WIND       PRES   REMARKS
ATLANTIC *     SUNNY     68  45  42 NE6       30.32F
AUDUBON *      SUNNY     68  43  40 NE5       30.35S
CLARINDA *       N/A     70  48  46 MISG      30.32F
COUNCIL BLFS * SUNNY     70  46  43 NE6       30.33S
CRESTON *      SUNNY     68  46  45 N8G15     30.32F
HARLAN  *      SUNNY     70  43  37 NE9       30.36F
LAMONI         SUNNY     69  52  54 N7        30.29F
RED OAK *      SUNNY     68  50  52 NE8       30.32S
SHENANDOAH *   SUNNY     70  46  43 NE7       30.32S
$$

IAZ047>049-059>061-072>074-084-300000-
   CENTRAL IOWA

CITY           SKY/WX    TMP DP  RH WIND       PRES   REMARKS
AMES           CLEAR     71  48  43 NE9       30.30F
ANKENY *         N/A    N/A N/A N/A MISG        N/A
BOONE *        SUNNY     70  45  40 NE9G15    30.31S
CHARITON *       N/A     72  48  43 N7        30.28S
DES MOINES     SUNNY     73  45  36 N10       30.29F
GRINNELL*      CLEAR     72  43  35 N7        30.28F
KNOXVILLE *    CLEAR     72  46  40 N6G12     30.26F
MARSHALLTOWN   CLEAR     71  46  40 NE14      30.29S
NEWTON *       CLEAR     72  46  40 N12       30.27F
PELLA *        CLEAR     73  46  38 N5G16     30.28F
PERRY *          N/A     70  47  42 N5        30.32S
$$

IAZ004>006-015-016-023>025-035-036-300000-
   NORTH CENTRAL IOWA

CITY           SKY/WX    TMP DP  RH WIND       PRES   REMARKS
ALGONA *       SUNNY     68  48  49 N8        30.36S
CLARION *      CLEAR     70  45  40 NE9       30.34S
ESTHERVILLE    SUNNY     65  48  54 NE10      30.37S
FORT DODGE *   SUNNY     66  52  59 N6        30.34F
MASON CITY     CLEAR     69  45  41 N12       30.36S
FOREST CITY *    N/A     66  46  48 CALM      30.36S
WEBSTER CITY * SUNNY     72  45  37 N9        30.31S
IOWA FALLS *     N/A     72  44  37 N8        30.33S
$$

IAZ007>011-017>019-026>030-037>042-050>054-066-300000-
   NORTHEAST IOWA

CITY           SKY/WX    TMP DP  RH WIND       PRES   REMARKS
CEDAR RAPIDS   CLEAR     71  49  45 NE15      30.26R
CHARLES CITY * CLEAR     70  46  43 NE8G16    30.34R
CLINTON *      CLOUDY    69  54  58 NE14      30.25R
DECORAH *      CLEAR     68  52  56 N7        30.32F
DUBUQUE        CLEAR     68  50  52 NE14      30.28R
MONTICELLO *   CLEAR     72  46  40 NE8G15    30.26R
OELWEIN *      CLEAR     70  50  49 NE13G20   30.31S
WATERLOO       CLEAR     70  45  40 NE13G21   30.29S
$$

IAZ064-065-067-068-078-300000-
   EAST CENTRAL IOWA

CITY           SKY/WX    TMP DP  RH WIND       PRES   REMARKS
DAVENPORT      CLOUDY    70  51  51 NE13      30.24R
IOWA CITY      CLEAR     72  48  42 N10G18    30.26R
MT. PLEASANT * CLEAR     75  47  36 N15G22    30.23R
MUSCATINE *    CLEAR     73  48  40 NE13G21   30.23R
QUAD CITIES    CLOUDY    72  52  49 NE14G21   30.22R
$$

IAZ062-063-075>077-085>089-095>099-300000-
   SOUTHEAST IOWA

CITY           SKY/WX    TMP DP  RH WIND       PRES   REMARKS
BURLINGTON     PTCLDY    72  52  49 N18       30.21R
FAIRFIELD *    CLEAR     72  43  35 N13G22    30.24R
FORT MADISON *   N/A     72  50  46 N9        30.22R
KEOKUK *       CLEAR     73  50  43 NE9       30.20R
OSKALOOSA *      N/A     73  41  31 N10       30.25S
OTTUMWA        CLEAR     74  41  30 NE14      30.23F
WASHINGTON *     N/A    N/A N/A N/A MISG        N/A
$$

ABBREVIATIONS USED IN REMARKS
   TC - TEMPERATURES IN CELSIUS
  WCI - WIND CHILL INDEX
   HX - HEAT INDEX
  VSB - VISIBILITY
$$





USA.gov is the U.S. government's official web portal to all federal, state and local government web resources and services.